This is the latest recevied weather packets stored in our database for station/object K5RWS. If no packets are shown the sender has not sent any weather packets the latest 1 day(s).
| Time | Temp. | Humidity | Pressure | Rain* | Wind** | Luminosity | Snow |
|---|---|---|---|---|---|---|---|
| 1778051387 | 7.78° C | 64% | 1016.6 hPa | 0 mm | 0 m/s | 0 W/m² | - |
| 1778051084 | 8.33° C | 62% | 1016.7 hPa | 0 mm | 0 m/s | 0 W/m² | - |
| 1778050781 | 8.89° C | 61% | 1016.3 hPa | 0 mm | 0.89 m/s, 245° | 0 W/m² | - |
| 1778050479 | 8.89° C | 60% | 1016.1 hPa | 0 mm | 1.34 m/s, 282° | 0 W/m² | - |
| 1778050175 | 8.89° C | 60% | 1016.2 hPa | 0 mm | 1.79 m/s, 303° | 0 W/m² | - |
| 1778049871 | 8.89° C | 61% | 1016.3 hPa | 0 mm | 0.89 m/s, 296° | 0 W/m² | - |
| 1778049568 | 8.33° C | 62% | 1016.4 hPa | 0 mm | 1.79 m/s, 299° | 0 W/m² | - |
| 1778049266 | 8.89° C | 62% | 1016.2 hPa | 0 mm | 1.34 m/s, 284° | 0 W/m² | - |
| 1778048963 | 8.89° C | 61% | 1016.3 hPa | 0 mm | 1.34 m/s, 262° | 0 W/m² | - |
| 1778048662 | 9.44° C | 61% | 1016.3 hPa | 0 mm | 1.79 m/s, 265° | 0 W/m² | - |
| 1778048357 | 9.44° C | 60% | 1016.2 hPa | 0 mm | 0.89 m/s, 261° | 0 W/m² | - |
| 1778048054 | 10° C | 59% | 1016.2 hPa | 0 mm | 1.79 m/s, 280° | 0 W/m² | - |
| 1778047752 | 10° C | 58% | 1016.3 hPa | 0 mm | 1.79 m/s, 259° | 0 W/m² | - |
| 1778047450 | 10.56° C | 57% | 1016.1 hPa | 0 mm | 0.89 m/s, 285° | 0 W/m² | - |
| 1778047147 | 10.56° C | 56% | 1016.1 hPa | 0 mm | 1.79 m/s, 260° | 0 W/m² | - |
| 1778046844 | 10.56° C | 57% | 1016.2 hPa | 0 mm | 1.34 m/s, 263° | 0 W/m² | - |
| 1778046540 | 10.56° C | 56% | 1016.1 hPa | 0 mm | 1.34 m/s, 265° | 0 W/m² | - |
| 1778046237 | 10.56° C | 58% | 1016.3 hPa | 0 mm | 0.89 m/s, 211° | 0 W/m² | - |
| 1778045933 | 10.56° C | 63% | 1016.6 hPa | 0 mm | 0.45 m/s, 233° | 0 W/m² | - |
| 1778045632 | 10.56° C | 63% | 1016.3 hPa | 0 mm | 0 m/s | 0 W/m² | - |
| 1778045330 | 10.56° C | 63% | 1016.2 hPa | 0 mm | 0.45 m/s, 203° | 0 W/m² | - |
| 1778045028 | 10.56° C | 62% | 1016.4 hPa | 0 mm | 0.45 m/s, 215° | 0 W/m² | - |
| 1778044726 | 10.56° C | 62% | 1016.2 hPa | 0 mm | 0 m/s | 0 W/m² | - |
| 1778044422 | 10.56° C | 63% | 1016.2 hPa | 0 mm | 0 m/s | 0 W/m² | - |
| 1778044119 | 10.56° C | 63% | 1016.2 hPa | 0 mm | 0.89 m/s, 239° | 0 W/m² | - |
* Rain latest hour (hover to see other rain measurements)
** Current wind speed in m/s (hover to see current wind gust speed)